GALAXY 34

Last updated on Wed Dec 14 2022 00:02:50 GMT+0000 (Coordinated Universal Time)

1 54027U 22128B 22346.13473435 .00000056 00000+0 00000+0 0 9999 2 54027 0.0042 359.5260 0002044 303.4352 57.0306 1.00440504 915
UTC large
Height (km)
Speed (km/s)
/
Latitude / Longitude
Inclination (degrees)
Orbital Period (minutes)
Azimuth
Elevation
Range (km)
Doppler Factor

Next 0 passes for location: London (51.5072 / 0.1276)

Sorry there are no passes over London.